International Skating Union - Official Site

ISU World Cup Hamar
January 31 - February 1, 2015

Draw | Lap Times | Index | World Cup

Referee: Debora  SIGHEL  (ITA)
Starter: Tone  SØRLI  (NOR)
StartTime: EndTime: Air Temp: Ice Temp: Humidity:
13:15 13:57 16.2℃ -7.2℃ 19.4%
Result 3000m Ladies Division A
Rankings as of Feb 1 2015 2:05PM
Rank: No.: Name: Nation: Time: Behind: Points:
1 14 Martina  Sábliková CZE CZE 4:03.68200m - 20.33 - (20.3)
600m - 51.36 - (31.0)
1000m - 1:22.85 - (31.4)
1400m - 1:54.81 - (31.9)
1800m - 2:26.65 - (31.8)
2200m - 2:58.81 - (32.1)
2600m - 3:31.02 - (32.2)
3000m - 4:03.68 - (32.6)
100
2 32 Carlijn  Achtereekte NED NED 4:05.13200m - 20.10 - (20.1)
600m - 50.85 - (30.7)
1000m - 1:22.28 - (31.4)
1400m - 1:54.21 - (31.9)
1800m - 2:26.52 - (32.3)
2200m - 2:59.14 - (32.6)
2600m - 3:32.05 - (32.9)
3000m - 4:05.13 - (33.0)
1.45 80
3 40 Ireen  Wüst NED NED 4:05.20200m - 19.71 - (19.7)
600m - 50.18 - (30.4)
1000m - 1:21.88 - (31.6)
1400m - 1:53.97 - (32.0)
1800m - 2:25.89 - (31.9)
2200m - 2:58.21 - (32.3)
2600m - 3:31.34 - (33.1)
3000m - 4:05.20 - (33.8)
1.52 70
4 35 Marije  Joling NED NED 4:06.70200m - 19.81 - (19.8)
600m - 50.54 - (30.7)
1000m - 1:21.97 - (31.4)
1400m - 1:53.87 - (31.9)
1800m - 2:26.03 - (32.1)
2200m - 2:58.74 - (32.7)
2600m - 3:32.12 - (33.3)
3000m - 4:06.70 - (34.5)
3.02 60
5 39 Jorien  Voorhuis NED NED 4:07.87200m - 19.85 - (19.8)
600m - 51.32 - (31.4)
1000m - 1:23.74 - (32.4)
1400m - 1:56.35 - (32.6)
1800m - 2:28.41 - (32.0)
2200m - 3:00.85 - (32.4)
2600m - 3:33.81 - (32.9)
3000m - 4:07.87 - (34.0)
4.19 50
6 38 Diane  Valkenburg NED NED 4:09.22200m - 20.61 - (20.6)
600m - 52.37 - (31.7)
1000m - 1:24.39 - (32.0)
1400m - 1:56.17 - (31.7)
1800m - 2:28.21 - (32.0)
2200m - 3:00.76 - (32.5)
2600m - 3:34.35 - (33.5)
3000m - 4:09.22 - (34.8)
5.54 45
7 52 Olga  Graf RUS RUS 4:09.75200m - 20.87 - (20.8)
600m - 52.52 - (31.6)
1000m - 1:24.78 - (32.2)
1400m - 1:57.09 - (32.3)
1800m - 2:29.69 - (32.6)
2200m - 3:02.41 - (32.7)
2600m - 3:35.77 - (33.3)
3000m - 4:09.75 - (33.9)
6.07 40
8 21 Claudia  Pechstein GER GER 4:10.81200m - 20.53 - (20.5)
600m - 52.37 - (31.8)
1000m - 1:25.14 - (32.7)
1400m - 1:58.29 - (33.1)
1800m - 2:31.18 - (32.8)
2200m - 3:04.34 - (33.1)
2600m - 3:37.50 - (33.1)
3000m - 4:10.81 - (33.3)
7.13 35
9 45 Ida  Njåtun NOR NOR 4:11.95200m - 20.03 - (20.0)
600m - 51.83 - (31.8)
1000m - 1:24.16 - (32.3)
1400m - 1:56.84 - (32.6)
1800m - 2:29.97 - (33.1)
2200m - 3:03.53 - (33.5)
2600m - 3:37.63 - (34.1)
3000m - 4:11.95 - (34.3)
8.27 30
10 50 Luiza  Zlotkowska POL POL 4:12.37200m - 20.55 - (20.5)
600m - 53.18 - (32.6)
1000m - 1:25.97 - (32.7)
1400m - 1:58.37 - (32.4)
1800m - 2:31.20 - (32.8)
2200m - 3:04.61 - (33.4)
2600m - 3:38.32 - (33.7)
3000m - 4:12.37 - (34.0)
8.69 25
11 30 Bo-Reum  Kim KOR KOR 4:12.38200m - 21.07 - (21.0)
600m - 53.40 - (32.3)
1000m - 1:25.47 - (32.0)
1400m - 1:58.62 - (33.1)
1800m - 2:32.02 - (33.4)
2200m - 3:06.26 - (34.2)
2600m - 3:39.45 - (33.1)
3000m - 4:12.38 - (32.9)
8.70 21
12 55 Yuliya  Skokova RUS RUS 4:12.48200m - 20.17 - (20.1)
600m - 52.18 - (32.0)
1000m - 1:24.81 - (32.6)
1400m - 1:57.71 - (32.9)
1800m - 2:30.77 - (33.0)
2200m - 3:04.21 - (33.4)
2600m - 3:38.24 - (34.0)
3000m - 4:12.48 - (34.2)
8.80 18
13 19 Bente  Kraus GER GER 4:12.76200m - 20.44 - (20.4)
600m - 52.63 - (32.2)
1000m - 1:25.02 - (32.3)
1400m - 1:57.79 - (32.7)
1800m - 2:30.98 - (33.2)
2200m - 3:04.67 - (33.6)
2600m - 3:38.65 - (33.9)
3000m - 4:12.76 - (34.1)
9.08 16
14 56 Natalya  Voronina RUS RUS 4:14.55200m - 20.47 - (20.4)
600m - 53.30 - (32.8)
1000m - 1:25.95 - (32.6)
1400m - 1:59.23 - (33.2)
1800m - 2:32.08 - (32.8)
2200m - 3:06.00 - (33.9)
2600m - 3:39.95 - (33.9)
3000m - 4:14.55 - (34.6)
10.87 14
15 27 Nana  Takagi JPN JPN 4:15.58200m - 20.08 - (20.0)
600m - 51.61 - (31.5)
1000m - 1:23.96 - (32.3)
1400m - 1:56.94 - (32.9)
1800m - 2:30.14 - (33.2)
2200m - 3:04.40 - (34.2)
2600m - 3:39.33 - (34.9)
3000m - 4:15.58 - (36.2)
11.90 12
16 4 Ivanie  Blondin CAN CAN DQ200m - 20.32 - (20.3)
600m - 52.10 - (31.7)
1000m - 1:25.15 - (33.0)
1400m - 1:57.66 - (32.5)
1800m - 2:30.86 - (33.2)
2200m - 3:04.74 - (33.8)
2600m - 3:39.47 - (34.7)
3000m - 4:14.49 - (35.0)
0